Location: Newark
(41.6500°N, 71.4833°W)
Time: 08:39:53
(UTC+00:00)

Explorer 7 - Visible Passes

Search period start: 27 January 2020 00:00
Search period end: 06 February 2020 00:00
Orbit: 485 x 679 km, 50.3° (Epoch: 27 January)

Date Brightness Start Highest point End Pass type
(mag) Time Alt. Az. Time Alt. Az. Time Alt. Az.
31 Jan 9.4 00:28:45 10° SSW 00:29:07 12° SSW 00:29:07 12° SSW visible
01 Feb 9.1 00:33:21 10° SW 00:34:27 18° SW 00:34:27 18° SW visible
01 Feb 8.5 22:59:33 10° S 23:02:03 16° SE 23:03:22 14° ESE visible
02 Feb 8.9 00:38:11 10° WSW 00:39:43 22° WSW 00:39:43 22° WSW visible
02 Feb 7.9 23:03:23 10° SSW 23:06:48 26° SE 23:08:34 19° E visible
03 Feb 9.0 00:43:14 10° WSW 00:44:55 23° W 00:44:55 23° W visible
03 Feb 7.2 23:07:44 10° SSW 23:11:37 44° SE 23:13:41 23° E visible
04 Feb 9.2 00:48:26 10° W 00:50:01 21° W 00:50:01 21° W visible
04 Feb 6.7 23:12:25 10° SW 23:16:29 73° SE 23:18:44 24° ENE visible
05 Feb 9.4 00:53:43 10° W 00:55:03 18° WNW 00:55:03 18° WNW visible
05 Feb 6.8 23:17:19 10° WSW 23:21:25 73° NNW 23:23:42 23° NE visible
